Retour au catalogue

BREEZE-M DEB

ActifHEO
NORAD 43401·DEBRIS·🇷🇺 Russia

Lancé May 17, 2012 depuis Baikonur Cosmodrome

Loading…

Prochains Passages (prochaines 24 heures)

TLE

FraisSource: Space-Track

Époque: Sep 14, 2026, 04:44 UTC

1 43401U 12026N   26257.19725061 -.00000127  00000-0  00000-0 0  9997
2 43401   9.7737 134.6454 4091061  48.8770  85.5388  1.75797354 90418

Suivez BREEZE-M DEB en temps réel avec AllMySat

Download on the App Store